GEFSSE_con_maxscp_000.txt.gz
SCP
0 0 0 0 0 0 0 0 0 0 0 0 1 1 1 0 0 0 0 0 0 0 0 0 0 0 0 0 0 0 0 0 0 0 0 0 0 0 0 0 0 0 0
0 0 0 0 0 0 0 0 0 0 0 0 0 0 0 0 0 0 0 0 0 0 0 0 0 0 0 0 0 0 0 0 0 0 0 0 0 0 0 0 0 0 0
0 0 0 0 1 0 0 1 1 0 0 0 0 0 0 0 0 0 0 0 0 0 0 0 0 0 0 0 0 0 0 0 0 0 0 0 0 0 0 0 0 0 0
0 0 0 0 1 1 1 1 1 1 0 0 0 0 0 0 0 0 0 0 0 0 0 0 0 0 0 0 0 0 0 0 0 0 0 0 0 0 0 0 0 0 0
0 0 0 0 0 0 0 1 1 1 0 0 0 0 0 0 0 0 0 0 0 0 0 0 0 0 0 0 0 0 0 0 0 0 0 0 0 0 0 0 0 0 0
0 0 0 0 0 0 0 0 0 0 0 0 0 0 0 0 0 0 0 0 0 0 0 0 0 0 0 0 0 0 0 0 0 0 0 0 0 0 0 0 1 1 0
0 0 0 0 0 0 0 0 0 0 0 0 0 0 0 0 0 0 0 0 0 0 0 0 0 0 0 0 0 0 0 0 0 0 0 0 0 0 0 1 1 1 1
0 0 0 0 0 0 0 0 0 0 0 0 0 0 0 0 0 0 0 0 0 0 0 0 0 0 0 0 0 0 0 0 0 0 0 0 0 0 1 1 1 1 1
0 0 0 0 0 0 0 0 0 0 0 0 0 0 0 0 0 0 0 0 0 0 0 0 0 0 0 0 0 0 0 0 0 0 0 0 0 0 1 1 1 1 1
0 0 0 0 0 0 0 0 0 0 0 0 0 0 0 0 0 0 0 0 0 0 0 0 0 0 0 0 0 0 0 0 0 0 0 0 0 0 0 1 1 1 1
0 0 0 0 0 0 0 0 0 0 0 0 0 0 0 0 0 0 0 0 0 0 0 0 0 0 0 0 0 0 0 0 0 0 0 0 0 0 0 1 1 2 2
0 0 0 0 0 0 0 0 0 0 0 0 0 0 0 0 0 0 0 0 0 0 0 0 0 0 0 0 0 0 0 0 0 0 0 0 0 0 0 1 1 1 2
0 0 0 0 0 0 0 0 0 0 0 0 0 0 0 0 0 0 0 0 0 0 0 0 0 0 0 0 0 0 0 0 0 0 0 0 0 0 0 1 1 1 1
0 0 0 0 1 1 0 0 0 0 0 0 0 0 0 0 0 0 0 0 0 0 0 0 0 0 0 0 0 0 0 0 0 0 0 0 0 0 0 0 1 1 1
0 0 0 1 1 1 0 0 0 0 0 0 0 0 0 0 0 0 0 0 0 0 0 0 0 0 0 0 0 0 0 0 0 0 0 0 0 0 0 0 0 1 1
0 0 0 0 1 1 0 0 0 0 0 0 0 0 0 0 0 0 0 0 0 0 0 0 0 0 0 0 0 0 0 0 0 0 0 0 0 0 0 0 0 0 0
0 0 0 0 1 1 1 0 0 0 0 0 0 0 0 0 0 0 0 0 0 0 0 0 0 0 0 0 0 0 0 0 0 0 0 0 0 0 0 0 0 0 0
0 0 0 1 1 1 1 1 0 0 0 0 0 0 0 0 0 0 0 0 0 0 0 0 0 0 0 0 0 0 0 0 0 0 0 0 0 0 0 0 0 0 0
0 0 1 1 1 1 1 1 0 0 0 0 0 0 0 0 0 0 0 0 0 0 0 0 0 0 0 0 0 0 0 0 0 0 0 0 0 0 0 0 0 0 0
1 1 1 1 1 1 1 1 0 0 0 0 0 0 0 0 0 0 0 0 0 0 0 0 0 0 0 0 0 0 0 0 0 0 0 0 0 0 0 0 0 0 0
1 1 1 1 1 1 1 1 1 1 0 0 0 0 0 0 0 1 0 0 0 0 0 0 0 0 0 0 0 0 0 0 0 0 0 0 0 0 0 0 0 0 0
1 1 0 0 1 1 1 1 1 1 1 0 0 0 0 0 1 1 1 1 1 1 1 1 1 1 0 0 0 0 0 0 0 0 0 0 0 0 0 0 0 0 0
1 0 0 0 0 0 1 1 1 1 1 1 0 0 0 0 1 1 1 1 1 1 1 1 1 1 1 0 0 0 0 0 0 0 0 0 0 0 0 0 0 0 0
0 0 0 0 0 0 0 1 1 1 1 1 0 0 0 0 1 1 1 1 1 1 1 1 1 1 1 1 0 0 0 0 0 0 0 0 0 0 0 0 0 0 0
0 0 0 0 0 0 0 0 1 1 1 1 1 0 0 0 1 1 1 1 1 1 1 1 1 1 1 1 0 0 0 0 0 0 0 0 0 0 0 0 0 0 0
0 0 0 0 0 0 0 0 0 0 1 1 1 1 1 0 1 1 1 1 1 1 1 1 1 1 1 0 0 0 0 0 0 0 0 0 0 0 0 0 0 0 0

GEFSSE_con_maxscp_006.txt.gz
SCP
0 0 0 0 0 0 0 0 0 0 0 0 0 0 0 0 0 0 0 0 0 0 0 0 0 0 0 0 0 0 0 0 0 0 0 0 0 0 0 -0 -0 0 0
0 0 0 0 0 0 0 0 0 0 0 0 0 0 0 0 0 0 0 0 0 0 0 0 0 0 0 0 0 0 0 0 0 0 0 0 0 0 0 0 0 0 0
0 0 0 0 0 0 0 0 0 0 0 0 0 0 0 0 0 0 0 0 0 0 0 0 0 0 0 0 0 0 0 0 0 0 0 0 0 0 0 0 0 0 0
0 0 0 0 0 0 0 0 0 0 0 0 0 0 0 0 0 0 0 0 0 0 0 0 0 0 0 0 0 0 0 0 0 0 0 0 0 0 0 0 0 0 0
0 0 0 0 0 0 0 0 0 0 0 0 0 0 0 0 0 0 0 0 0 0 0 0 0 0 0 0 0 0 0 0 0 0 0 0 0 0 0 0 0 0 0
0 0 0 0 0 0 0 0 0 0 0 0 0 0 0 0 0 0 0 0 0 0 0 0 0 0 0 0 0 0 0 0 0 0 0 0 0 0 0 0 0 0 0
0 0 0 0 0 0 0 0 0 0 0 0 0 0 0 0 0 0 0 0 0 0 0 0 0 0 0 0 0 0 0 0 0 0 0 0 0 1 1 1 0 0 0
0 0 0 0 0 0 0 0 0 0 0 0 0 0 0 0 0 0 0 0 0 0 0 0 0 0 0 0 0 0 0 0 0 0 0 0 0 1 1 1 1 1 1
0 0 0 0 0 0 0 0 0 0 0 0 0 0 0 0 0 0 0 0 0 0 0 0 0 0 0 0 0 0 0 0 0 0 0 0 1 1 1 1 1 1 1
0 0 0 0 0 0 0 0 0 0 0 0 0 0 0 0 0 0 0 0 0 0 0 0 0 0 0 0 0 0 0 0 0 0 0 0 1 1 0 0 1 1 1
0 0 0 0 0 0 0 0 0 0 0 0 0 0 0 0 0 0 0 0 0 0 0 0 0 0 0 0 0 0 0 0 0 0 0 1 1 1 0 1 1 1 1
0 0 0 0 0 0 0 0 0 0 0 0 0 0 0 0 0 0 0 0 0 0 0 0 0 0 0 0 0 0 0 0 0 0 0 1 1 0 0 0 1 1 1
0 0 0 0 0 0 0 0 0 0 0 0 0 0 0 0 0 0 0 0 0 0 0 0 0 0 0 0 0 0 0 0 0 0 1 1 1 0 0 0 1 1 1
0 0 0 0 1 1 0 0 0 0 0 0 0 0 0 0 0 0 0 0 0 0 0 0 0 0 0 0 0 0 0 0 0 0 1 1 1 0 0 0 1 1 1
0 0 0 1 1 1 1 0 0 0 1 0 0 0 0 0 0 0 0 0 0 0 0 0 0 0 0 0 0 0 0 0 0 0 0 1 1 0 0 0 0 0 1
0 0 1 1 1 1 1 1 0 1 1 1 0 0 0 0 0 0 0 0 0 0 0 0 0 0 0 0 0 0 0 0 0 0 0 0 1 1 0 0 0 0 0
1 1 1 1 1 1 1 1 1 1 1 1 0 0 0 0 0 0 0 0 0 0 0 0 0 0 0 0 0 0 0 0 0 0 0 0 0 0 0 0 0 0 0
1 1 1 1 1 1 1 1 1 1 1 1 1 1 1 0 0 0 0 0 0 0 0 0 0 0 0 0 0 0 0 0 0 0 0 0 0 0 0 0 0 0 0
2 1 1 1 1 2 2 2 2 2 2 2 2 1 1 1 1 1 0 0 0 0 0 0 0 0 0 0 0 0 0 0 0 0 0 0 0 0 0 0 0 0 0
2 2 2 2 2 2 2 3 4 4 4 3 3 2 1 1 1 1 1 0 0 0 0 0 0 0 0 0 0 0 0 0 0 0 0 0 0 0 0 0 0 0 0
2 2 2 3 2 2 3 4 4 5 5 5 4 3 2 1 1 1 1 0 0 0 0 0 0 0 0 0 0 0 0 0 0 0 0 0 0 0 0 0 0 0 0
3 3 3 3 3 3 3 4 4 5 5 5 4 3 2 1 1 1 1 1 1 1 1 1 1 1 1 0 0 0 0 0 0 0 0 0 0 0 0 0 0 0 0
2 2 2 2 2 2 3 3 4 4 4 4 4 3 2 2 2 2 1 1 1 1 1 1 1 1 1 1 1 0 0 0 0 0 0 0 0 0 0 0 0 0 0
2 2 2 2 2 2 2 3 3 3 3 3 3 3 2 2 2 2 2 1 1 1 1 1 1 1 1 1 1 1 1 1 1 0 0 0 0 0 0 0 0 0 0
1 1 1 1 1 1 1 2 2 2 2 2 2 2 3 3 2 2 2 1 1 1 1 1 1 1 1 1 1 1 1 1 1 1 0 0 0 0 0 0 0 0 0
1 1 1 1 1 1 1 1 1 1 1 2 2 2 3 3 3 2 2 2 1 1 1 1 1 1 1 1 1 1 1 1 1 1 0 0 0 0 0 0 0 0 0

GEFSSE_con_maxscp_012.txt.gz
SCP
1 0 0 0 0 0 0 0 0 0 0 0 0 0 0 0 0 0 0 0 0 0 0 -0 -0 -0 -0 -0 0 0 0 0 0 0 0 0 0 0 0 0 0 0 0
0 0 0 0 0 0 0 0 0 0 0 0 0 0 0 0 0 0 0 0 0 0 0 -0 -0 -0 -0 0 0 0 0 0 0 0 0 0 0 0 0 0 0 0 0
0 0 0 0 0 0 0 0 0 0 0 0 0 0 0 0 0 0 0 0 0 0 0 -0 -0 -0 0 0 0 0 0 0 0 0 0 0 0 0 0 0 0 0 0
0 0 0 0 0 0 0 0 0 0 0 0 0 0 0 0 0 0 0 0 0 0 0 0 0 0 0 0 0 0 0 0 0 0 0 0 0 0 0 0 0 0 0
0 0 0 0 0 0 0 0 0 0 0 0 0 0 0 0 0 0 0 0 0 0 0 0 0 0 0 0 0 0 0 0 0 0 0 0 1 1 0 0 0 0 0
0 0 0 0 0 0 0 0 0 0 0 0 0 0 0 0 0 0 0 0 0 0 0 0 0 0 0 0 0 0 0 0 0 0 0 1 1 1 1 0 0 0 0
0 0 0 0 0 0 0 0 0 0 0 0 0 0 0 0 0 0 0 0 0 0 0 0 0 0 0 0 0 0 0 0 0 0 0 1 1 1 1 1 1 0 0
0 0 0 0 0 0 0 0 0 0 0 0 0 0 0 0 0 0 0 0 0 0 0 0 0 0 0 0 0 0 0 0 0 0 0 1 1 2 1 1 1 1 1
1 0 0 0 0 0 0 0 0 0 0 0 0 0 0 0 0 0 0 0 0 0 0 0 0 0 0 0 0 0 0 0 0 0 0 1 1 2 2 1 1 1 1
1 0 0 0 0 0 0 0 0 0 0 0 0 0 0 0 0 0 0 0 0 0 0 0 0 0 0 0 0 0 0 0 0 0 0 1 2 2 2 2 2 1 1
1 0 0 0 0 0 0 0 0 0 1 0 0 0 0 0 0 1 1 1 1 1 1 0 0 0 0 0 0 0 0 0 0 0 1 1 2 2 2 2 2 2 2
1 1 1 1 0 0 0 1 1 1 1 1 1 1 1 1 1 1 1 1 1 1 1 1 1 0 0 0 0 1 0 0 0 0 1 2 2 2 2 2 2 2 2
0 0 1 1 1 0 1 1 1 1 1 1 1 1 1 1 1 1 2 2 1 1 1 1 1 1 0 0 0 1 0 0 0 0 1 2 2 2 2 2 2 2 2
0 1 1 1 1 0 1 1 1 1 1 1 1 1 1 1 1 2 2 2 1 1 1 1 1 1 0 0 0 0 0 0 0 1 1 2 2 2 2 2 1 1 1
0 1 1 2 1 1 1 1 1 1 1 1 2 2 2 2 2 3 3 2 2 1 1 1 1 1 1 0 0 0 0 0 0 1 1 2 2 2 1 1 1 1 1
1 1 2 2 2 1 1 1 1 1 2 2 2 2 3 3 3 4 3 3 2 2 2 2 1 1 1 1 1 0 0 0 1 1 1 1 1 1 1 1 1 1 1
1 2 2 2 2 2 2 1 1 2 2 3 3 3 4 4 4 4 4 3 3 2 2 2 1 1 1 1 1 1 1 1 1 1 1 1 1 1 1 1 1 1 1
3 3 3 2 3 3 3 2 2 3 4 4 4 4 4 4 4 4 5 4 4 3 3 3 2 1 1 1 1 1 1 1 1 1 1 1 1 1 1 1 1 1 1
5 6 5 3 3 4 4 3 3 3 4 4 4 4 5 5 5 5 5 5 4 4 3 3 2 2 1 1 1 1 1 1 1 1 1 1 1 1 1 1 1 1 1
7 8 7 5 5 5 4 4 4 3 4 4 4 5 5 6 5 5 5 5 4 4 3 3 3 2 2 1 1 1 1 1 2 2 1 1 1 1 1 1 1 1 1
9 9 8 7 6 6 6 5 4 4 4 4 5 5 6 6 6 5 5 5 4 4 3 3 3 3 2 2 1 1 1 1 2 2 2 1 1 1 1 1 1 1 1
11 10 9 8 8 8 7 6 6 5 5 5 6 6 6 6 6 5 5 5 4 4 4 3 3 2 2 2 2 1 1 1 2 2 1 1 1 1 1 1 1 1 1
11 10 10 10 9 8 8 7 6 6 5 6 6 7 7 6 6 5 5 5 5 5 4 3 2 2 2 2 2 1 1 1 1 1 1 1 1 1 1 1 1 1 1
10 10 10 10 9 8 7 7 6 6 5 5 6 6 6 6 5 4 4 4 5 5 5 3 2 2 2 2 2 2 1 1 1 1 1 1 1 1 1 1 1 1 1
8 8 8 8 8 7 6 6 5 5 5 5 5 5 5 5 4 4 4 4 5 5 5 4 3 2 2 2 1 1 1 1 1 1 1 1 1 1 1 1 1 1 1
6 6 6 6 6 5 4 4 4 5 5 5 5 5 5 5 4 4 3 4 5 5 5 5 4 3 2 2 1 1 1 1 1 1 1 1 1 1 1 1 1 1 1

GEFSSE_con_maxscp_018.txt.gz
SCP
0 0 0 0 0 0 0 0 0 0 0 0 0 0 0 0 0 0 0 0 0 -0 -0 -0 -0 -0 -0 -0 0 0 0 0 0 0 0 0 0 0 0 0 0 0 0
0 0 0 0 0 0 0 0 0 0 0 0 0 0 0 0 0 0 0 0 0 0 -0 -0 -0 -0 -0 -0 -0 0 0 0 0 0 0 0 0 0 0 0 0 0 0
0 0 0 0 0 0 0 0 0 0 0 0 0 0 0 0 0 0 0 0 0 0 0 -0 -0 -0 -0 -0 0 0 0 0 0 0 0 0 0 0 0 0 0 0 0
0 0 0 0 0 0 0 0 0 0 0 0 0 0 0 0 0 0 0 0 0 0 0 0 -0 -0 0 0 0 0 0 0 0 0 0 0 0 0 0 0 0 0 0
0 0 0 0 0 0 0 0 0 0 0 0 0 0 0 0 0 0 0 0 0 0 0 0 0 0 0 0 0 0 0 0 0 0 0 0 0 0 0 0 0 0 0
0 0 0 0 0 0 0 0 0 0 0 0 0 0 0 0 0 0 0 0 0 0 0 0 0 0 0 0 0 0 0 0 0 0 0 0 0 0 0 0 0 0 0
0 0 0 0 0 0 0 0 0 0 0 0 0 0 0 0 0 0 0 0 0 0 0 0 0 0 0 0 0 0 0 0 0 0 0 0 0 0 1 1 0 0 0
0 0 0 0 0 0 0 0 0 0 0 0 0 0 0 0 0 0 0 0 0 0 0 0 0 0 0 0 0 0 0 0 0 0 0 0 0 0 1 1 1 1 1
0 0 0 0 0 0 0 0 0 0 0 0 0 0 0 0 0 0 0 0 0 0 0 0 0 0 0 0 0 0 0 0 0 0 0 0 0 1 1 1 1 1 1
0 0 0 0 0 0 0 0 0 0 0 0 0 0 0 0 0 0 0 0 1 1 0 0 0 0 0 0 0 0 0 0 0 0 0 0 0 1 1 1 1 1 1
0 0 0 0 0 0 0 0 0 0 0 0 0 0 0 0 0 0 0 1 1 1 1 1 1 0 0 0 0 0 0 0 0 0 0 0 0 1 1 1 1 1 1
0 0 0 0 0 0 0 0 0 0 0 0 0 0 0 0 0 0 0 1 1 1 1 1 1 1 0 0 0 0 0 0 0 0 0 0 0 1 1 1 1 1 1
0 0 0 0 0 0 0 0 0 0 0 0 0 0 0 0 0 0 0 1 1 1 1 1 1 1 1 0 0 0 0 0 0 0 0 0 1 1 1 1 1 1 1
0 0 0 0 0 0 0 0 0 0 0 0 0 0 0 0 0 0 0 1 1 1 1 1 1 1 1 0 0 0 0 0 0 0 0 0 1 1 1 1 1 1 1
1 0 0 0 0 0 0 0 0 0 0 0 0 0 0 0 0 0 0 1 1 1 1 1 0 1 1 0 0 0 0 0 0 0 0 0 1 1 1 1 1 1 1
1 1 1 1 0 0 1 1 0 1 1 1 1 1 1 1 0 1 1 1 1 1 1 1 1 1 0 0 0 0 0 0 0 0 0 1 1 1 1 1 1 1 1
1 1 1 1 1 1 1 1 1 1 1 1 1 1 1 1 1 1 1 1 1 1 1 1 1 0 0 0 0 0 0 0 0 0 0 0 1 1 1 1 1 1 1
2 2 2 2 1 1 1 1 1 1 1 1 1 1 1 1 1 1 1 1 1 1 1 1 1 0 0 0 0 0 0 0 0 0 0 0 0 0 1 1 1 1 1
3 3 3 3 2 2 2 2 2 2 2 2 1 1 1 1 1 2 1 1 1 1 1 1 1 1 1 0 0 0 0 0 0 0 0 0 0 0 0 1 1 1 1
4 4 4 3 3 2 2 2 2 2 2 2 1 1 2 2 2 2 2 2 2 1 1 1 1 1 1 1 0 0 0 0 0 0 0 1 1 0 0 0 1 1 1
5 5 5 5 4 3 3 3 3 2 2 2 2 2 2 2 2 2 2 2 2 2 2 1 1 1 1 1 0 0 0 0 0 0 1 1 1 1 0 0 0 1 1
8 8 7 6 5 5 4 4 3 3 3 3 2 2 2 2 2 2 2 2 2 2 2 2 1 1 1 1 0 0 0 0 0 0 1 1 1 1 0 0 0 0 0
11 10 9 8 7 6 5 5 4 4 3 3 3 2 2 2 2 2 2 2 2 2 2 2 2 1 1 1 0 0 0 0 0 0 0 0 0 0 0 0 0 0 0
12 12 10 8 7 6 5 5 4 4 3 3 2 2 1 1 1 1 1 2 2 2 2 2 2 1 1 1 0 0 0 0 0 0 0 0 0 0 0 0 0 0 0
11 10 8 6 5 4 4 3 3 3 2 2 1 1 1 1 1 1 1 1 1 2 2 2 1 1 1 1 0 0 0 0 0 0 0 0 0 0 0 0 0 0 0
9 8 7 5 4 3 2 2 2 2 2 1 1 1 1 1 0 1 1 1 1 1 1 1 1 1 1 0 0 0 0 0 0 0 0 0 0 0 0 0 0 0 0

GEFSSE_con_maxscp_024.txt.gz
SCP
11 14 15 14 15 18 22 23 23 21 19 20 21 21 22 22 22 22 23 24 25 26 25 25 25 27 26 23 19 17 15 14 12 10 9 9 9 9 6 3 3 4 5
10 12 13 12 13 15 18 21 21 19 18 18 19 19 20 21 21 21 21 22 23 23 22 21 22 23 23 22 19 16 14 12 11 9 8 8 8 9 6 3 3 3 4
9 10 10 10 10 11 13 16 17 17 16 15 16 16 17 18 19 19 19 20 20 19 17 17 17 18 19 19 18 15 12 10 8 7 6 6 7 8 6 4 2 2 2
7 7 7 8 8 8 10 12 14 15 14 14 13 13 14 14 15 16 16 17 17 16 14 14 14 15 15 15 15 14 11 9 7 6 5 5 5 6 6 4 2 2 2
5 5 6 7 7 7 9 10 11 12 12 11 11 11 11 11 11 12 13 14 15 14 13 13 13 13 14 14 13 13 11 9 7 6 6 5 5 5 5 4 2 1 1
3 4 5 6 6 6 7 8 9 9 9 9 8 8 8 8 8 9 10 12 13 14 14 14 14 13 13 13 13 12 11 9 8 8 7 6 5 4 4 4 3 2 2
2 3 5 5 4 4 5 6 6 7 7 7 6 6 6 6 7 7 9 11 13 14 15 15 15 13 12 12 12 12 11 9 9 8 8 6 5 5 5 5 5 5 5
2 3 4 4 3 3 3 4 4 5 6 5 4 4 4 6 8 8 9 10 12 14 15 15 14 12 12 12 13 13 11 9 8 8 7 6 5 5 6 7 8 7 8
3 4 4 4 3 3 3 3 3 3 4 5 4 3 5 7 10 10 9 9 11 13 14 14 13 12 12 14 15 14 12 10 9 8 7 6 5 6 8 9 9 9 9
5 4 4 4 4 4 4 4 3 3 5 6 6 6 7 9 9 9 8 9 11 13 14 14 14 13 15 17 18 16 13 11 10 9 7 6 6 8 9 10 10 11 11
6 5 4 4 4 4 5 5 5 5 7 8 9 9 10 9 8 7 7 10 12 14 15 15 15 15 17 19 19 17 13 11 10 9 8 7 8 9 9 10 11 13 13
5 5 4 4 4 4 5 6 6 7 9 9 9 10 10 8 6 5 7 9 12 14 15 14 15 15 17 19 18 15 12 10 10 9 8 9 10 10 10 10 12 14 14
5 5 5 5 5 5 6 6 7 8 9 9 8 7 7 6 5 5 6 7 9 11 12 13 14 14 15 17 16 13 10 9 8 8 8 10 11 12 12 12 13 14 14
5 5 6 6 6 6 6 7 8 9 8 7 6 6 6 5 5 4 5 5 6 8 10 11 12 12 12 13 13 10 8 7 7 7 8 10 12 13 14 16 17 17 16
6 6 7 8 8 7 7 7 7 8 7 6 6 6 6 5 5 4 4 4 5 6 8 9 10 10 10 10 9 8 7 7 7 8 9 11 13 15 17 21 22 22 21
6 7 7 8 8 8 7 7 7 7 7 7 7 7 7 7 6 6 5 5 5 6 7 8 8 8 8 8 7 7 8 8 8 9 10 11 14 17 20 24 27 26 25
8 8 8 9 10 9 8 8 8 9 9 9 9 9 9 8 7 7 6 6 6 6 6 7 7 8 8 8 8 8 9 9 9 9 10 12 15 17 21 25 29 29 28
12 12 12 13 14 12 11 11 13 13 13 11 11 11 10 9 7 7 6 6 6 5 6 6 8 9 9 8 8 8 9 9 9 9 11 13 16 18 20 23 28 30 30
17 18 19 20 20 18 15 14 16 18 18 17 16 14 13 10 7 5 6 7 7 7 7 8 9 9 9 8 7 7 7 8 8 9 10 13 15 17 19 21 25 28 29
21 22 24 26 25 21 18 16 18 21 23 24 23 22 20 16 11 8 8 10 12 12 12 11 11 10 9 7 6 6 6 5 6 6 8 10 13 17 19 20 21 22 22
20 21 26 30 29 24 21 21 24 27 29 30 31 30 28 25 19 15 14 15 16 16 16 15 13 12 9 7 6 5 3 2 2 3 6 9 12 15 16 16 16 15 14
17 18 23 29 30 28 28 29 31 34 34 33 32 31 29 26 22 19 17 16 15 15 15 14 13 12 10 7 6 4 2 1 0 1 5 10 13 13 12 10 9 8 8
17 17 20 24 28 32 35 38 39 38 35 31 26 21 18 17 16 14 13 13 12 12 12 12 12 12 11 9 7 5 3 1 0 1 3 7 10 10 8 6 4 3 3
22 21 21 22 28 34 38 40 40 37 30 23 16 9 6 6 6 6 6 7 8 9 11 12 13 13 13 12 9 5 3 2 1 1 2 3 5 5 5 4 3 2 1
21 21 20 22 28 32 33 32 31 28 22 15 8 4 2 1 1 1 1 2 3 5 7 9 10 11 11 11 9 5 2 2 2 3 2 2 2 2 2 2 1 1 1
15 14 16 21 26 27 26 23 22 21 16 10 5 2 1 0 0 0 0 0 1 2 3 4 5 6 7 8 7 4 2 3 3 3 2 1 1 1 1 1 1 0 0

GEFSSE_con_maxscp_030.txt.gz
SCP
0 0 0 0 0 0 0 0 0 0 0 0 0 0 0 0 0 0 0 0 0 0 0 0 0 0 0 0 0 0 0 0 0 0 0 0 0 0 0 0 0 0 0
0 0 0 0 0 0 0 0 0 0 0 0 0 0 0 0 0 0 0 0 0 0 0 0 0 0 0 0 0 0 0 0 0 0 0 0 0 0 0 0 0 0 0
0 0 0 0 0 0 0 0 0 0 0 0 0 0 0 0 0 0 0 0 0 0 0 0 0 0 0 0 0 0 0 0 0 0 0 0 0 0 0 0 0 0 0
0 0 0 0 0 0 0 0 0 0 0 0 0 0 0 0 0 0 0 0 0 0 0 0 0 0 0 0 0 0 0 0 0 0 0 0 0 0 0 0 0 0 0
0 0 0 0 0 0 0 0 0 0 0 0 0 0 0 0 0 0 0 0 0 0 0 0 0 0 0 0 0 0 0 0 0 0 0 0 0 0 0 0 0 0 0
0 0 0 0 0 0 0 0 0 0 0 0 0 0 0 0 0 0 0 0 0 0 0 0 0 0 0 0 0 0 0 0 0 0 0 0 0 0 0 0 0 0 0
0 0 0 0 0 0 0 0 0 0 0 0 0 0 0 0 0 0 0 0 0 0 0 0 0 0 0 0 0 0 0 0 0 0 0 0 0 0 0 0 0 0 0
0 0 0 0 0 0 0 0 0 0 0 0 0 0 0 0 0 0 0 0 0 0 0 0 0 0 0 0 0 0 0 0 0 0 0 0 0 0 0 0 0 0 0
0 0 0 0 0 0 0 0 0 0 0 0 0 0 0 0 0 0 0 0 0 0 0 0 0 0 0 0 0 0 0 0 0 0 0 0 0 0 0 0 0 0 0
0 0 0 0 0 0 0 0 0 0 0 0 0 0 0 0 0 0 0 0 0 0 0 0 0 0 0 0 0 0 0 0 0 0 0 1 1 1 0 0 0 0 0
0 0 0 0 0 0 0 0 0 0 0 0 0 0 0 0 0 0 0 0 0 0 0 0 0 0 1 1 1 1 1 0 0 0 0 1 1 1 1 1 0 0 0
1 0 0 0 0 0 0 0 0 0 0 0 0 0 0 0 0 0 0 0 0 0 0 0 0 0 0 0 1 1 0 0 0 0 1 1 1 1 1 1 1 0 0
1 1 1 1 0 0 0 0 0 0 0 0 0 0 0 0 0 0 0 0 0 0 0 0 0 0 0 0 0 0 0 0 0 1 1 1 1 1 1 1 1 1 0
1 1 1 1 1 0 0 0 0 0 0 0 0 0 0 0 0 0 0 0 0 0 0 0 0 0 0 0 0 0 0 0 1 1 1 1 1 1 1 1 1 1 1
1 1 1 1 1 1 1 0 0 0 0 1 1 1 1 1 1 1 1 1 1 1 0 0 0 0 0 0 0 0 0 1 1 1 1 1 1 1 1 1 1 1 1
1 1 2 2 2 2 1 1 1 1 1 1 1 1 1 1 1 1 1 2 1 1 1 1 1 0 0 0 1 1 1 1 1 1 1 2 2 1 1 1 1 1 1
1 2 2 2 2 2 1 1 1 1 1 1 2 2 2 2 2 2 2 2 2 2 2 1 1 1 1 1 1 1 1 2 2 2 2 2 2 2 2 2 2 2 2
2 3 3 3 2 2 2 2 2 2 2 2 3 3 3 3 3 3 3 3 2 2 2 2 1 1 1 1 1 1 2 2 2 2 2 2 2 2 2 2 2 2 2
4 4 4 4 4 4 3 3 3 3 3 4 4 4 4 4 4 4 4 3 2 2 2 2 2 2 2 1 1 1 2 2 2 2 2 2 2 2 2 2 2 2 2
5 5 6 7 7 6 5 4 4 4 4 5 6 5 5 4 4 4 4 3 3 2 2 2 2 2 2 2 2 1 1 2 2 2 2 2 2 2 2 2 2 2 2
5 6 7 8 8 7 6 6 6 5 5 6 6 6 5 5 5 4 4 4 3 3 3 3 2 2 2 2 2 2 1 1 2 2 2 2 2 2 2 2 2 2 2
5 5 6 7 7 7 7 8 8 7 7 7 7 7 6 6 6 5 4 4 4 3 3 3 3 3 2 2 2 1 1 1 1 2 2 2 2 2 2 2 2 2 2
4 4 5 6 7 7 7 8 9 9 8 7 8 8 7 7 6 5 5 4 4 4 4 4 3 3 2 1 1 1 1 1 1 2 2 2 2 2 2 2 2 2 2
4 4 5 6 6 7 8 9 10 9 8 7 8 8 7 6 6 5 5 5 4 4 4 3 3 2 1 1 1 2 2 2 2 2 2 2 2 2 2 2 2 2 2
4 4 5 6 6 7 7 8 8 7 7 7 7 7 6 6 5 5 5 5 4 3 4 3 2 1 1 1 1 2 2 2 2 2 1 2 2 2 2 2 2 2 2
3 4 5 5 6 6 7 7 7 6 6 7 7 7 6 5 4 4 4 4 3 3 3 3 2 1 1 1 2 2 2 2 2 2 2 1 1 2 2 2 2 2 2

GEFSSE_con_maxscp_036.txt.gz
SCP
1 1 0 0 0 0 0 0 0 0 0 0 0 0 0 0 0 0 0 0 0 0 0 0 0 0 0 0 0 0 0 0 0 0 0 0 0 0 0 0 0 0 0
1 0 0 0 0 0 0 0 0 0 0 0 0 0 0 0 0 0 0 0 0 0 0 0 0 0 0 0 0 0 0 0 0 0 0 0 0 0 0 0 0 0 0
0 0 0 0 0 0 0 0 0 0 0 0 0 0 0 0 0 0 0 0 0 0 0 0 0 0 0 0 0 0 0 0 0 0 0 0 0 0 0 0 0 0 0
0 0 0 0 0 0 0 0 0 0 0 0 0 0 0 0 0 0 0 0 0 0 0 0 0 0 0 0 0 0 0 0 0 0 0 0 0 0 0 0 0 0 0
0 0 0 0 0 0 0 0 0 0 0 0 0 0 0 0 0 0 0 0 0 0 0 0 0 0 0 0 0 0 0 0 0 0 0 0 0 1 1 1 0 0 0
0 0 0 0 0 0 0 0 0 0 0 0 0 0 0 0 0 0 0 0 0 0 0 0 0 0 0 0 0 0 0 0 0 0 0 0 1 1 1 1 1 1 1
0 0 0 0 0 0 0 0 0 0 0 0 0 0 0 0 0 0 0 0 0 0 0 0 0 0 0 0 0 0 0 0 0 0 0 0 1 1 1 1 1 1 1
1 1 1 1 1 0 0 0 0 0 0 0 0 0 0 0 0 0 0 0 0 0 0 0 0 0 0 0 0 0 0 0 0 0 0 0 1 1 2 1 1 1 1
2 1 1 1 1 1 0 0 0 0 0 0 0 0 0 0 0 0 0 0 0 0 0 0 0 0 0 0 0 0 0 0 0 0 0 0 1 2 2 2 1 1 1
2 2 1 1 1 1 1 0 0 1 1 1 1 0 0 0 0 0 1 1 1 1 1 0 0 0 0 1 1 1 1 1 0 0 0 1 2 2 2 2 2 1 1
2 2 2 1 1 1 1 1 1 1 1 1 1 1 1 0 1 1 1 1 1 1 1 1 1 1 1 1 1 1 1 1 1 0 1 1 2 3 3 3 2 2 1
2 2 2 2 1 1 1 1 1 1 1 1 1 1 1 1 1 1 1 2 2 2 1 1 1 1 1 1 1 1 1 1 1 1 1 2 2 3 3 3 2 2 2
2 2 3 3 3 2 1 1 1 1 1 1 1 2 2 1 1 1 2 2 2 2 2 1 1 1 1 1 1 1 1 1 1 1 1 2 3 3 3 3 2 2 2
3 3 3 4 4 3 2 2 2 2 2 2 2 2 2 2 2 2 2 3 3 2 2 2 2 2 1 1 1 1 1 1 1 1 2 3 3 3 3 3 2 2 2
3 3 4 6 6 5 4 3 3 3 3 3 3 3 3 3 3 3 3 4 3 3 3 3 3 3 2 2 2 1 2 2 2 2 2 3 4 4 3 3 3 2 2
4 4 5 7 8 7 6 5 4 3 3 3 4 5 5 5 5 5 5 5 4 3 3 4 4 4 3 3 2 2 2 2 2 2 3 3 4 4 4 4 3 3 2
5 6 7 8 9 8 7 6 4 4 4 5 7 8 8 8 7 7 6 6 5 5 4 4 5 4 4 3 2 2 2 2 2 2 3 3 4 4 4 4 4 3 3
10 10 9 9 9 9 8 7 5 5 7 9 11 12 12 10 9 9 8 7 7 7 6 5 5 4 4 3 3 2 2 2 2 2 3 4 4 4 4 4 4 4 3
16 15 13 11 11 11 10 9 7 7 9 11 12 13 13 12 11 10 9 9 8 7 7 6 6 5 5 4 3 2 2 2 2 2 3 3 4 5 5 4 4 4 4
18 17 15 14 14 13 12 10 9 8 9 10 11 12 14 14 13 12 11 9 8 7 7 7 7 7 6 5 3 3 2 2 2 2 2 3 4 5 4 4 5 5 5
16 15 15 15 14 13 11 10 9 8 8 9 10 12 15 16 16 15 12 10 9 8 8 8 8 8 7 6 5 4 3 3 2 2 3 3 4 4 4 4 4 5 5
14 14 13 13 12 11 10 9 9 9 8 9 11 13 14 16 17 15 13 11 9 8 9 10 9 9 8 7 6 5 4 3 2 2 3 3 3 3 3 3 3 4 5
13 12 11 11 10 8 8 8 8 9 9 10 12 13 13 14 14 13 11 10 9 9 9 9 9 8 8 8 7 6 4 3 2 2 2 3 3 3 3 2 2 3 3
9 9 9 9 8 6 6 7 8 8 9 11 12 13 12 11 11 10 10 10 9 9 8 8 7 7 7 8 7 6 4 3 2 2 2 2 2 2 2 2 2 2 2
5 5 6 6 6 5 6 7 7 8 9 10 11 11 10 9 8 8 9 9 9 8 7 7 6 6 7 7 7 6 4 3 2 1 1 1 1 1 2 2 2 2 2
4 4 4 4 5 5 5 6 7 8 9 9 9 9 9 8 8 8 8 9 8 7 7 6 6 6 6 6 6 5 4 2 2 1 1 1 1 1 1 1 1 1 1

GEFSSE_con_maxscp_042.txt.gz
SCP
1 1 2 2 2 2 1 1 2 2 2 2 1 1 1 1 2 2 3 3 3 2 2 2 1 1 1 1 1 1 1 2 2 2 2 2 2 2 3 2 2 1 1
1 1 2 2 2 1 1 1 2 2 2 1 1 1 1 1 1 2 2 2 2 2 2 1 1 1 1 1 1 1 1 1 1 1 1 1 2 2 3 2 2 1 1
1 1 1 1 1 1 1 1 2 2 2 1 1 1 1 1 1 1 1 2 2 1 1 1 1 1 1 1 1 1 1 1 1 1 1 1 1 2 2 2 2 1 1
1 1 1 1 1 1 1 2 2 2 2 1 1 1 1 1 1 1 1 1 1 1 1 1 1 1 1 1 1 1 1 1 2 1 1 1 1 1 2 2 2 1 1
1 1 1 2 2 2 2 2 2 2 2 1 1 1 1 2 2 1 1 1 1 1 1 1 1 1 1 1 1 2 2 2 2 2 1 1 1 1 2 2 2 1 1
1 1 2 2 3 3 3 3 3 2 2 2 2 1 2 2 2 2 1 1 1 1 1 1 1 1 1 2 2 2 2 2 2 1 1 1 1 1 2 2 2 2 1
1 1 2 3 3 3 3 3 3 3 3 2 2 2 2 2 2 2 2 1 1 1 1 1 1 2 2 2 2 2 2 1 1 1 1 0 1 1 1 2 2 2 2
1 2 2 3 4 4 4 4 4 3 3 3 2 2 2 2 2 2 2 1 1 1 2 2 2 2 3 3 3 2 2 1 1 1 1 0 1 1 1 1 1 2 2
2 2 2 3 3 3 3 4 4 4 3 3 3 2 2 2 2 2 2 2 2 2 2 3 3 3 4 4 4 3 3 2 2 1 1 1 1 1 2 2 1 1 1
1 2 2 2 2 3 3 3 4 4 4 3 3 3 3 3 3 3 3 3 3 3 3 4 4 4 5 5 5 5 4 3 3 2 1 1 1 2 2 2 2 2 2
1 1 2 2 2 2 3 3 4 4 4 4 4 4 4 3 3 3 4 4 4 4 5 5 5 6 6 6 6 5 5 4 3 2 2 2 2 3 3 2 2 2 2
1 2 2 2 2 2 2 3 3 4 4 3 3 4 4 3 3 3 4 4 5 5 6 6 7 7 6 6 5 5 5 4 3 3 3 3 4 4 4 3 3 3 2
2 2 2 2 2 2 2 3 3 3 3 3 3 3 3 3 3 3 3 4 5 6 6 6 6 6 6 5 5 5 4 4 3 3 3 4 5 6 6 5 4 4 3
2 2 2 2 3 2 2 2 3 2 2 2 2 2 2 3 3 3 3 4 4 5 5 5 5 5 5 6 6 5 4 4 4 3 3 4 6 7 7 6 6 5 5
3 2 3 3 3 3 2 2 2 2 2 2 2 2 3 4 4 4 3 3 4 4 4 4 4 5 6 6 6 6 5 5 4 4 4 5 6 7 7 7 7 7 6
4 4 4 4 3 3 3 3 3 3 3 3 3 3 4 5 5 5 4 4 4 4 4 4 4 5 6 6 6 5 5 5 5 5 4 5 6 7 7 7 7 8 8
6 6 5 5 4 4 5 6 6 5 5 5 4 4 5 6 5 5 5 5 4 4 4 4 4 4 4 4 4 3 3 4 4 5 4 4 5 6 7 7 8 8 8
7 7 7 7 6 7 8 9 9 8 7 6 5 5 6 6 5 5 5 5 4 4 3 3 3 3 3 3 2 2 2 2 3 3 2 2 3 4 5 6 7 8 8
7 8 9 9 9 9 10 11 11 10 9 7 6 5 6 6 5 5 5 5 4 4 4 3 3 2 2 2 2 1 1 1 2 1 1 1 2 2 3 3 4 6 7
7 8 9 9 10 10 10 10 10 10 9 7 6 6 6 6 6 5 5 5 5 5 4 4 3 3 2 2 2 2 1 1 1 1 1 1 1 1 1 2 3 4 4
7 7 7 8 8 8 8 9 9 9 8 8 7 7 7 7 6 6 5 5 5 5 4 4 4 4 3 2 2 2 1 1 1 1 1 1 1 1 1 2 2 2 3
7 7 7 7 6 6 7 7 8 8 8 8 8 8 8 7 7 6 6 5 5 5 4 4 4 4 4 3 2 2 1 1 1 1 1 1 1 1 1 1 2 2 2
7 7 7 6 6 6 6 7 7 7 7 7 7 7 8 8 7 6 5 5 5 5 4 5 5 5 4 4 3 2 2 1 1 1 1 1 1 1 1 1 1 1 1
8 7 6 6 6 6 6 6 6 6 6 6 6 6 7 7 6 5 5 5 5 5 4 5 5 5 5 4 3 2 2 1 1 1 1 1 1 1 1 1 1 1 1
6 6 6 6 6 6 6 6 6 5 5 5 4 5 6 6 5 4 4 4 4 4 4 4 5 5 5 4 3 2 1 1 1 1 1 1 1 1 1 0 0 0 0
5 5 5 6 6 6 5 5 5 5 5 4 3 4 5 5 4 4 4 4 4 4 4 4 4 5 5 4 2 2 1 1 1 1 1 0 1 1 1 0 0 0 0